Карточка аэропорта UMKK

Внимание!
Информация на этой странице в стадии наполнения.
Если вы не увидели какой-то информации, или заметили неточность - пожалуйста сообщите нам!
Спасибо!
Команда RU-STAFF
Название аэропортаХраброво
Название аэропорта (англ.)Khrabrovo
Превышение43 ft. (13.1 m.)
Координаты54°53.4', 20°35.55'
Высота перехода4000ft
Эшелон переходаFL50 (QNH>=1013hPa); FL60 (QNH<1013hPa); FL50 (QNH<977hPa);
Коды ответчика6620-6637
Зона ОрВДКалининград РПИ (UMKK)
Данные METARUMKK 210830Z 22004MPS 9000 -RA BKN006 OVC019 06/06 Q1013 R24/290095 NOSIG RMK QBB180 OBST OBSC QFE759/1012
Проноз погоды (TAF)UMKK 210755Z 2109/2209 21005G11MPS 6000 -RADZ BKN005 OVC011 TEMPO 2109/2124 1500 SHRA BR BKN003 BKN014CB BECMG 2114/2115 25005G11MPS TEMPO 2200/2209 0500 FG VV002 BECMG 2200/2204 17003G08MPS
NOTAMshow/hide NOTAM
AWOS   TABLE

Информация о ВПП

ВПП Длина ВПП (м.) Покрытие Курс ВПП Частота ILS
243350Асфальтобетон240109.5
063350Асфальтобетон60110.3

Диспетчерские позиции

Позывной Наименование органа УВД Частота
UMKK_APPКалининград-Подход126.0
UMKK_TWRКалининград-Вышка127.2



Спутниковое изображение